Flag for U.S.A. Weather past 2 weeks in Daly City, California, U.S.A.

Now
71 °F

Partly sunny.


Feels Like: 75 °F
Forecast: 59 / 68 °F
Wind: 18 mph from Northwest

Location: San Francisco International Airport

Current Time: Jul 31, 2015 at 3:19:58 PM

Latest Report: Jul 31, 2015 at 1:56 PM


Visibility: 10 mi

Pressure: 30.01 "Hg

Humidity: 63%

Dew point: 58 °F

Location of Daly CityLocation

Historic Weather in Daly City — Graph

°F

Daly City temperature yesterday

Maximum temperature yesterday: 72 °F (at 2:56 PM)
Minimum temperature yesterday: 60 °F (at 2:56 AM)
Average temperature yesterday: 65 °F

Past Weeks' High & Low Weather Summary

 TemperatureHumidityPressure
High87 °F (Jul 19, 2:56 PM)93% (Jul 29, 5:56 AM)30.13 "Hg (Jul 29, 5:56 AM)
Low57 °F (Jul 27, 4:56 AM)30% (Jul 28, 1:56 PM)29.78 "Hg (Jul 17, 5:56 PM)
Average66 °F71%29.95 "Hg
* Reported Jul 16 1:56 PM — Jul 31 1:56 PM, Daly City, Weather by CustomWeather, © 2015

Note: Actual official high and low records may vary slightly from our data, if they occured in-between our weather recording intervals... More about our weather records

Advertising

Daly City weather history for previous 24 hours

 ConditionsComfort  
Time TempWeatherWind HumidityBarometerVisibility
1:56 PM
Fri, Jul 31
71 °FPartly sunny.18 mph63%30.01 "Hg10 mi
12:56 PM69 °FPartly sunny.18 mph68%30.02 "Hg10 mi
11:56 AM65 °FPartly sunny.15 mph76%30.02 "Hg10 mi
10:56 AM65 °FPartly sunny.16 mph78%30.02 "Hg10 mi
9:56 AM67 °FPartly sunny.14 mph73%30.01 "Hg10 mi
8:56 AM65 °FScattered clouds.12 mph76%30.03 "Hg10 mi
7:56 AM62 °FScattered clouds.5 mph83%30.03 "Hg10 mi
6:56 AM61 °FPartly cloudy.10 mph87%30.02 "Hg10 mi
5:56 AM60 °FPassing clouds.7 mph86%30.01 "Hg10 mi
4:56 AM60 °FPassing clouds.8 mph86%30.01 "Hg10 mi
3:56 AM60 °FPassing clouds.10 mph86%30.01 "Hg10 mi
2:56 AM60 °FPassing clouds.14 mph86%30.01 "Hg10 mi
1:56 AM60 °FPassing clouds.13 mph90%30.01 "Hg10 mi
12:56 AM60 °FPassing clouds.13 mph90%30.01 "Hg10 mi
11:56 PM
Thu, Jul 30
61 °FPassing clouds.13 mph87%30.01 "Hg10 mi
10:56 PM61 °FPassing clouds.16 mph87%30.00 "Hg10 mi
9:56 PM62 °FPartly cloudy.15 mph86%30.01 "Hg10 mi
8:56 PM62 °FBroken clouds.17 mph86%29.99 "Hg10 mi
7:56 PM64 °FScattered clouds.20 mph81%29.98 "Hg10 mi
6:56 PM66 °FScattered clouds.22 mph75%29.97 "Hg10 mi
5:56 PM68 °FScattered clouds.23 mph70%29.96 "Hg10 mi
4:56 PM70 °FScattered clouds.25 mph66%29.96 "Hg10 mi
3:56 PM71 °FScattered clouds.24 mph63%29.97 "Hg10 mi
Weather by CustomWeather, © 2015

See weather overviewHow to use our weather pages